[[{"header":{"parameterUnit":"m.s-1","parameterCategory":1,"la1":30.2992,"la2":30.254,"lo1":-89.0895,"lo2":-89.0443,"dy":0.0025,"dx":0.0025,"nx":19,"ny":19,"refTime":"2026-04-11T03:00:00:Z","depth":0,"parameterNumber":2,"parameterNumberName":"U-component_of_WINDS"},"data":[0,0,0,-4.3318,-4.3319,-4.337,-4.337,-4.3443,-4.3443,0,0,0,0,0,0,0,0,0,0,0,-4.3307,-4.3308,-4.3318,-4.3319,-4.337,-4.337,-4.3443,-4.3443,0,0,0,0,0,0,0,0,0,0,0,-4.3307,-4.3308,-4.3309,-4.332,-4.337,-4.337,-4.3442,-4.3401,0,0,0,0,0,0,0,0,0,0,-4.3351,-4.3345,-4.3308,-4.3309,-4.332,-4.337,-4.337,-4.3399,-4.3404,-4.3423,0,-4.3441,0,-4.3444,-4.3449,-4.3449,0,0,0,-4.3316,-4.3341,-4.3351,-4.3309,-4.332,-4.337,-4.3346,-4.3402,-4.3407,-4.3429,-4.3442,-4.3445,-4.3445,-4.3449,-4.345,-4.3574,-4.3575,0,0,-4.3313,-4.3319,-4.3348,-4.3355,-4.3348,-4.3344,-4.3348,-4.3405,-4.3419,-4.3443,-4.3446,-4.3446,-4.345,-4.345,-4.3573,-4.3574,0,0,0,-4.3307,-4.3317,-4.3325,-4.3352,-4.3361,-4.3346,-4.335,-4.3417,-4.3419,-4.3447,-4.3447,-4.345,-4.3451,-4.3573,-4.3574,-4.3616,0,0,0,-4.3305,-4.3314,-4.3324,-4.3328,-4.336,-4.3389,-4.336,-4.3415,-4.3421,-4.3447,-4.345,-4.3452,-4.3572,-4.3573,-4.3613,-4.3635,0,0,0,-4.3303,-4.3313,-4.3322,-4.3328,-4.3351,-4.3388,-4.3394,-4.3416,-4.3421,-4.3449,-4.3452,-4.3571,-4.3573,-4.3611,-4.363,-4.3669,0,0,0,-4.3301,-4.3358,-4.3323,-4.3388,-4.335,-4.3415,-4.3393,-4.3441,-4.347,-4.3451,-4.3572,-4.3574,-4.361,-4.3628,-4.3666,-4.3701,-4.3717,0,0,-4.3377,-4.3368,-4.3406,-4.3375,-4.3448,-4.3407,-4.3486,-4.3506,-4.3503,-4.3551,-4.3554,-4.3614,-4.363,-4.3668,-4.3806,-4.3818,0,0,0,-4.3432,-4.3459,-4.3477,-4.3505,-4.3524,-4.3541,-4.3549,-4.3558,-4.3598,-4.3529,-4.3639,-4.3649,-4.3671,-4.3687,-4.3698,-4.3716,-4.3582,-4.3582,-4.3582,-4.3545,-4.354,-4.3602,-4.3604,-4.3633,-4.3642,-4.3665,-4.3677,-4.3662,-4.3689,-4.3702,-4.3786,-4.3806,-4.3814,-4.3833,-4.3722,-4.3722,-4.3722,-4.3722,-4.3654,-4.3691,-4.3674,-4.3728,-4.3723,-4.3768,-4.378,-4.3769,-4.381,-4.3775,-4.3794,-4.3755,-4.3827,-4.3844,-4.3725,-4.3725,-4.3724,-4.3724,-4.3724,-4.3726,-4.3743,-4.3754,-4.3797,-4.3831,-4.3831,-4.3873,-4.3866,-4.3861,-4.388,-4.3893,-4.3892,-4.389,-4.3887,-4.3888,-4.3888,-4.3888,-4.3888,-4.3889,-4.3796,-4.3807,-4.3842,-4.387,-4.3889,-4.3913,-4.3926,-4.3944,-4.3963,-4.3955,-4.3955,-4.3937,-4.3836,-4.381,-4.3893,-4.3892,-4.3892,-4.3891,-4.3891,-4.3905,-4.388,-4.3935,-4.3955,-4.3987,-4.4022,-4.4015,-4.4054,-4.4068,-4.4089,-4.4069,-4.3996,-4.3986,-4.3977,-4.3955,-4.4071,-4.4071,-4.4071,-4.4071,-4.3965,-4.396,-4.4016,-4.4048,-4.4078,-4.4079,-4.4142,-4.4154,-4.4162,-4.4171,-4.4154,-4.4125,-4.4117,-4.4111,-4.41,-4.4079,-4.4224,-4.4224,-4.4224,-4.4031,-4.403,-4.4084,-4.4094,-4.412,-4.4142,-4.4201,-4.4238,-4.4242,-4.423,-4.4177,-4.4171,-4.4125,-4.411,-4.4093,-4.4075,-4.4037,0,0]},{"header":{"parameterUnit":"m.s-1","parameterCategory":1,"la1":30.2992,"la2":30.254,"lo1":-89.0895,"lo2":-89.0443,"dy":0.0025,"dx":0.0025,"nx":19,"ny":19,"refTime":"2026-04-11T03:00:00:Z","depth":0,"parameterNumber":3,"parameterNumberName":"V-component_of_WINDS"},"data":[0,0,0,3.5762,3.5762,3.5803,3.5803,3.5827,3.5827,0,0,0,0,0,0,0,0,0,0,0,3.5733,3.5733,3.5762,3.5762,3.5803,3.5803,3.5827,3.5827,0,0,0,0,0,0,0,0,0,0,0,3.5733,3.5733,3.5732,3.5762,3.5803,3.5803,3.5827,3.5806,0,0,0,0,0,0,0,0,0,0,3.5771,3.5729,3.5733,3.5732,3.5762,3.5803,3.5804,3.5805,3.5807,3.5796,0,3.5783,0,3.5806,3.5827,3.5827,0,0,0,3.5774,3.5727,3.5753,3.5732,3.5763,3.5803,3.5788,3.5807,3.5809,3.5799,3.5784,3.5786,3.5806,3.5827,3.5827,3.5731,3.573,0,0,3.5772,3.5731,3.5752,3.5754,3.5747,3.5787,3.5789,3.5808,3.5789,3.5784,3.5787,3.5806,3.5827,3.5827,3.5732,3.5731,0,0,0,3.5757,3.5729,3.5755,3.5752,3.5762,3.5787,3.579,3.5788,3.5801,3.5787,3.5807,3.5827,3.5827,3.5733,3.5732,3.5646,0,0,0,3.5757,3.5721,3.5754,3.5729,3.5761,3.5776,3.5769,3.5799,3.5803,3.5807,3.5827,3.5827,3.5734,3.5732,3.565,3.5611,0,0,0,3.5736,3.5718,3.5719,3.5727,3.5743,3.5776,3.579,3.5801,3.5814,3.5827,3.5827,3.5735,3.5733,3.5655,3.5618,3.5576,0,0,0,3.5702,3.5639,3.5717,3.5654,3.5743,3.5723,3.5791,3.5777,3.5778,3.5827,3.5734,3.5732,3.5656,3.5623,3.5581,3.5535,3.5511,0,0,3.5599,3.5625,3.5591,3.5663,3.5619,3.572,3.5664,3.5701,3.5738,3.5731,3.5729,3.5649,3.5619,3.5577,3.5393,3.5374,0,0,0,3.5545,3.5521,3.5518,3.5519,3.5548,3.557,3.5621,3.5636,3.5633,3.5727,3.5623,3.5606,3.5583,3.5563,3.5547,3.5532,3.572,3.5721,3.5721,3.5341,3.5395,3.5345,3.5404,3.5403,3.5459,3.5464,3.5493,3.5543,3.5518,3.5517,3.5399,3.5374,3.5362,3.5345,3.5496,3.5496,3.5495,3.5495,3.5198,3.5173,3.5247,3.5225,3.5282,3.5263,3.5314,3.5352,3.5343,3.5403,3.5386,3.5449,3.534,3.5328,3.5489,3.549,3.5491,3.5491,3.5492,3.5071,3.5069,3.509,3.5099,3.51,3.5162,3.5151,3.5202,3.525,3.5233,3.5239,3.524,3.525,3.5232,3.5232,3.5231,3.5231,3.5231,3.523,3.4932,3.4959,3.4945,3.4973,3.4983,3.5001,3.5058,3.5068,3.5092,3.513,3.5131,3.5186,3.5319,3.5353,3.5224,3.5225,3.5226,3.5227,3.5227,3.4769,3.4816,3.4793,3.4802,3.4842,3.4841,3.4908,3.4924,3.494,3.4933,3.4993,3.5083,3.5112,3.5125,3.5153,3.498,3.498,3.498,3.498,3.4664,3.4685,3.4676,3.4688,3.4705,3.4765,3.4739,3.4783,3.4836,3.4849,3.4881,3.4923,3.4934,3.4956,3.4973,3.5,3.4793,3.4792,3.4792,3.4568,3.4593,3.4561,3.4616,3.4652,3.4681,3.4659,3.467,3.4739,3.4786,3.4861,3.4869,3.4936,3.4955,3.5003,3.5028,3.5079,0,0]}]]